#Datum;Uhrzeit;WR;Pac;DaySum;Status;WR;Pac;DaySum;Status;Pdc1;Udc;Temp;WR;Pac;DaySum;Status;Pdc1;Udc;Temp;WR;Pac;DaySum;Status;Pdc1;Udc;Temp;WR;Pac;DaySum;Status;Pdc1;Pdc2;Udc1;Udc2;Temp;WR;Pac;DaySum;Status;Pdc1;Pdc2;Udc1;Udc2;Temp;WR;Pac;DaySum;Status;Pdc1;Udc;Temp;WR;Pac;DaySum;Status;Pdc1;Udc;Temp;WR;Pac;DaySum;Status;Pdc1;Udc;Temp
07.01.18;23:55:00;1;499;9477;0;2;0;3096;0;0;0;0;3;0;1894;0;0;0;0;4;0;2630;0;0;0;0;5;0;6788;0;0;0;0;0;0;6;0;4952;0;0;0;0;0;0;7;0;3340;0;0;0;0;8;0;3351;0;0;0;0;9;0;1763;0;0;0;0
07.01.18;23:50:00;1;521;9435;0;2;0;3096;0;0;0;0;3;0;1894;0;0;0;0;4;0;2630;0;0;0;0;5;0;6788;0;0;0;0;0;0;6;0;4952;0;0;0;0;0;0;7;0;3340;0;0;0;0;8;0;3351;0;0;0;0;9;0;1763;0;0;0;0
07.01.18;23:45:00;1;496;9392;0;2;0;3096;0;0;0;0;3;0;1894;0;0;0;0;4;0;2630;0;0;0;0;5;0;6788;0;0;0;0;0;0;6;0;4952;0;0;0;0;0;0;7;0;3340;0;0;0;0;8;0;3351;0;0;0;0;9;0;1763;0;0;0;0
07.01.18;23:40:00;1;402;9350;0;2;0;3096;0;0;0;0;3;0;1894;0;0;0;0;4;0;2630;0;0;0;0;5;0;6788;0;0;0;0;0;0;6;0;4952;0;0;0;0;0;0;7;0;3340;0;0;0;0;8;0;3351;0;0;0;0;9;0;1763;0;0;0;0
07.01.18;23:35:00;1;624;9298;0;2;0;3096;0;0;0;0;3;0;1894;0;0;0;0;4;0;2630;0;0;0;0;5;0;6788;0;0;0;0;0;0;6;0;4952;0;0;0;0;0;0;7;0;3340;0;0;0;0;8;0;3351;0;0;0;0;9;0;1763;0;0;0;0
07.01.18;23:30:00;1;412;9251;0;2;0;3096;0;0;0;0;3;0;1894;0;0;0;0;4;0;2630;0;0;0;0;5;0;6788;0;0;0;0;0;0;6;0;4952;0;0;0;0;0;0;7;0;3340;0;0;0;0;8;0;3351;0;0;0;0;9;0;1763;0;0;0;0
07.01.18;23:25:00;1;419;9217;0;2;0;3096;0;0;0;0;3;0;1894;0;0;0;0;4;0;2630;0;0;0;0;5;0;6788;0;0;0;0;0;0;6;0;4952;0;0;0;0;0;0;7;0;3340;0;0;0;0;8;0;3351;0;0;0;0;9;0;1763;0;0;0;0
07.01.18;23:20:00;1;418;9182;0;2;0;3096;0;0;0;0;3;0;1894;0;0;0;0;4;0;2630;0;0;0;0;5;0;6788;0;0;0;0;0;0;6;0;4952;0;0;0;0;0;0;7;0;3340;0;0;0;0;8;0;3351;0;0;0;0;9;0;1763;0;0;0;0
07.01.18;23:15:00;1;407;9147;0;2;0;3096;0;0;0;0;3;0;1894;0;0;0;0;4;0;2630;0;0;0;0;5;0;6788;0;0;0;0;0;0;6;0;4952;0;0;0;0;0;0;7;0;3340;0;0;0;0;8;0;3351;0;0;0;0;9;0;1763;0;0;0;0
07.01.18;23:10:00;1;421;9113;0;2;0;3096;0;0;0;0;3;0;1894;0;0;0;0;4;0;2630;0;0;0;0;5;0;6788;0;0;0;0;0;0;6;0;4952;0;0;0;0;0;0;7;0;3340;0;0;0;0;8;0;3351;0;0;0;0;9;0;1763;0;0;0;0
07.01.18;23:06:00;1;420;9092;0;2;0;3096;0;0;0;0;3;0;1894;0;0;0;0;4;0;2630;0;0;0;0;5;0;6788;0;0;0;0;0;0;6;0;4952;0;0;0;0;0;0;7;0;3340;0;0;0;0;8;0;3351;0;0;0;0;9;0;1763;0;0;0;0
07.01.18;23:00:00;1;857;9044;0;2;0;3096;0;0;0;0;3;0;1894;0;0;0;0;4;0;2630;0;0;0;0;5;0;6788;0;0;0;0;0;0;6;0;4952;0;0;0;0;0;0;7;0;3340;0;0;0;0;8;0;3351;0;0;0;0;9;0;1763;0;0;0;0
07.01.18;22:55:00;1;452;8978;0;2;0;3096;0;0;0;0;3;0;1894;0;0;0;0;4;0;2630;0;0;0;0;5;0;6788;2;0;0;0;0;0;6;0;4952;2;0;0;0;0;0;7;0;3340;0;0;0;0;8;0;3351;0;0;0;0;9;0;1763;0;0;0;0
07.01.18;22:50:00;1;439;8941;0;2;0;3096;0;0;0;0;3;0;1894;0;0;0;0;4;0;2630;0;0;0;0;5;0;6788;2;0;0;0;0;0;6;0;4952;2;0;0;0;0;0;7;0;3340;0;0;0;0;8;0;3351;0;0;0;0;9;0;1763;0;0;0;0
07.01.18;22:45:00;1;407;8903;0;2;0;3096;0;0;0;0;3;0;1894;0;0;0;0;4;0;2630;0;0;0;0;5;0;6788;2;0;0;0;0;0;6;0;4952;2;0;0;0;0;0;7;0;3340;0;0;0;0;8;0;3351;0;0;0;0;9;0;1763;0;0;0;0
07.01.18;22:40:00;1;405;8869;0;2;0;3096;0;0;0;0;3;0;1894;0;0;0;0;4;0;2630;0;0;0;0;5;0;6788;2;0;0;0;0;0;6;0;4952;2;0;0;0;0;0;7;0;3340;0;0;0;0;8;0;3351;0;0;0;0;9;0;1763;0;0;0;0
07.01.18;22:35:00;1;434;8835;0;2;0;3096;0;0;0;0;3;0;1894;0;0;0;0;4;0;2630;0;0;0;0;5;0;6788;2;0;0;0;0;0;6;0;4952;2;0;0;0;0;0;7;0;3340;0;0;0;0;8;0;3351;0;0;0;0;9;0;1763;0;0;0;0
07.01.18;22:30:00;1;402;8798;0;2;0;3096;0;0;0;0;3;0;1894;0;0;0;0;4;0;2630;0;0;0;0;5;0;6788;2;0;0;0;0;0;6;0;4952;2;0;0;0;0;0;7;0;3340;0;0;0;0;8;0;3351;0;0;0;0;9;0;1763;0;0;0;0
07.01.18;22:25:00;1;1030;8764;0;2;0;3096;0;0;0;0;3;0;1894;0;0;0;0;4;0;2630;0;0;0;0;5;0;6788;2;0;0;0;0;0;6;0;4952;2;0;0;0;0;0;7;0;3340;0;0;0;0;8;0;3351;0;0;0;0;9;0;1763;0;0;0;0
07.01.18;22:20:00;1;454;8698;0;2;0;3096;0;0;0;0;3;0;1894;0;0;0;0;4;0;2630;0;0;0;0;5;0;6788;2;0;0;0;0;0;6;0;4952;2;0;0;0;0;0;7;0;3340;0;0;0;0;8;0;3351;0;0;0;0;9;0;1763;0;0;0;0
07.01.18;22:15:00;1;452;8661;0;2;0;3096;0;0;0;0;3;0;1894;0;0;0;0;4;0;2630;0;0;0;0;5;0;6788;2;0;0;0;0;0;6;0;4952;2;0;0;0;0;0;7;0;3340;0;0;0;0;8;0;3351;0;0;0;0;9;0;1763;0;0;0;0
07.01.18;22:10:00;1;464;8623;0;2;0;3096;0;0;0;0;3;0;1894;0;0;0;0;4;0;2630;0;0;0;0;5;0;6788;2;0;0;0;0;0;6;0;4952;2;0;0;0;0;0;7;0;3340;0;0;0;0;8;0;3351;0;0;0;0;9;0;1763;0;0;0;0
07.01.18;22:05:00;1;497;8584;0;2;0;3096;0;0;0;0;3;0;1894;0;0;0;0;4;0;2630;0;0;0;0;5;0;6788;2;0;0;0;0;0;6;0;4952;2;0;0;0;0;0;7;0;3340;0;0;0;0;8;0;3351;0;0;0;0;9;0;1763;0;0;0;0
07.01.18;22:00:00;1;479;8542;0;2;0;3096;0;0;0;0;3;0;1894;0;0;0;0;4;0;2630;0;0;0;0;5;0;6788;2;0;0;0;0;0;6;0;4952;2;0;0;0;0;0;7;0;3340;0;0;0;0;8;0;3351;0;0;0;0;9;0;1763;0;0;0;0
07.01.18;21:55:00;1;467;8502;0;2;0;3096;0;0;0;0;3;0;1894;0;0;0;0;4;0;2630;0;0;0;0;5;0;6788;2;0;0;0;0;0;6;0;4952;2;0;0;0;0;0;7;0;3340;0;0;0;0;8;0;3351;0;0;0;0;9;0;1763;0;0;0;0
07.01.18;21:50:00;1;798;8463;0;2;0;3096;0;0;0;0;3;0;1894;0;0;0;0;4;0;2630;0;0;0;0;5;0;6788;2;0;0;0;0;0;6;0;4952;2;0;0;0;0;0;7;0;3340;0;0;0;0;8;0;3351;0;0;0;0;9;0;1763;0;0;0;0
07.01.18;21:45:00;1;404;8401;0;2;0;3096;0;0;0;0;3;0;1894;0;0;0;0;4;0;2630;0;0;0;0;5;0;6788;2;0;0;0;0;0;6;0;4952;2;0;0;0;0;0;7;0;3340;0;0;0;0;8;0;3351;0;0;0;0;9;0;1763;0;0;0;0
07.01.18;21:40:00;1;378;8367;0;2;0;3096;0;0;0;0;3;0;1894;0;0;0;0;4;0;2630;0;0;0;0;5;0;6788;2;0;0;0;0;0;6;0;4952;2;0;0;0;0;0;7;0;3340;0;0;0;0;8;0;3351;0;0;0;0;9;0;1763;0;0;0;0
07.01.18;21:35:00;1;346;8335;0;2;0;3096;0;0;0;0;3;0;1894;0;0;0;0;4;0;2630;0;0;0;0;5;0;6788;2;0;0;0;0;0;6;0;4952;2;0;0;0;0;0;7;0;3340;0;0;0;0;8;0;3351;0;0;0;0;9;0;1763;0;0;0;0
07.01.18;21:30:00;1;335;8307;0;2;0;3096;0;0;0;0;3;0;1894;0;0;0;0;4;0;2630;0;0;0;0;5;0;6788;2;0;0;0;0;0;6;0;4952;2;0;0;0;0;0;7;0;3340;0;0;0;0;8;0;3351;0;0;0;0;9;0;1763;0;0;0;0
07.01.18;21:25:00;1;341;8279;0;2;0;3096;0;0;0;0;3;0;1894;0;0;0;0;4;0;2630;0;0;0;0;5;0;6788;2;0;0;0;0;0;6;0;4952;2;0;0;0;0;0;7;0;3340;0;0;0;0;8;0;3351;0;0;0;0;9;0;1763;0;0;0;0
07.01.18;21:20:00;1;381;8251;0;2;0;3096;0;0;0;0;3;0;1894;0;0;0;0;4;0;2630;0;0;0;0;5;0;6788;2;0;0;0;0;0;6;0;4952;2;0;0;0;0;0;7;0;3340;0;0;0;0;8;0;3351;0;0;0;0;9;0;1763;0;0;0;0
07.01.18;21:15:00;1;524;8221;0;2;0;3096;0;0;0;0;3;0;1894;0;0;0;0;4;0;2630;0;0;0;0;5;0;6788;2;0;0;0;0;0;6;0;4952;2;0;0;0;0;0;7;0;3340;0;0;0;0;8;0;3351;0;0;0;0;9;0;1763;0;0;0;0
07.01.18;21:10:00;1;275;8169;0;2;0;3096;0;0;0;0;3;0;1894;0;0;0;0;4;0;2630;0;0;0;0;5;0;6788;2;0;0;0;0;0;6;0;4952;2;0;0;0;0;0;7;0;3340;0;0;0;0;8;0;3351;0;0;0;0;9;0;1763;0;0;0;0
07.01.18;21:05:00;1;271;8146;0;2;0;3096;0;0;0;0;3;0;1894;0;0;0;0;4;0;2630;0;0;0;0;5;0;6788;2;0;0;0;0;0;6;0;4952;2;0;0;0;0;0;7;0;3340;0;0;0;0;8;0;3351;0;0;0;0;9;0;1763;0;0;0;0
07.01.18;21:00:00;1;232;8123;0;2;0;3096;0;0;0;0;3;0;1894;0;0;0;0;4;0;2630;0;0;0;0;5;0;6788;2;0;0;0;0;0;6;0;4952;2;0;0;0;0;0;7;0;3340;0;0;0;0;8;0;3351;0;0;0;0;9;0;1763;0;0;0;0
07.01.18;20:55:00;1;232;8104;0;2;0;3096;0;0;0;0;3;0;1894;0;0;0;0;4;0;2630;0;0;0;0;5;0;6788;2;0;0;0;0;0;6;0;4952;2;0;0;0;0;0;7;0;3340;0;0;0;0;8;0;3351;0;0;0;0;9;0;1763;0;0;0;0
07.01.18;20:50:00;1;232;8085;0;2;0;3096;0;0;0;0;3;0;1894;0;0;0;0;4;0;2630;0;0;0;0;5;0;6788;2;0;0;0;0;0;6;0;4952;2;0;0;0;0;0;7;0;3340;0;0;0;0;8;0;3351;0;0;0;0;9;0;1763;0;0;0;0
07.01.18;20:45:00;1;408;8065;0;2;0;3096;0;0;0;0;3;0;1894;0;0;0;0;4;0;2630;0;0;0;0;5;0;6788;2;0;0;0;0;0;6;0;4952;2;0;0;0;0;0;7;0;3340;0;0;0;0;8;0;3351;0;0;0;0;9;0;1763;0;0;0;0
07.01.18;20:40:00;1;435;8021;0;2;0;3096;0;0;0;0;3;0;1894;0;0;0;0;4;0;2630;0;0;0;0;5;0;6788;2;0;0;0;0;0;6;0;4952;2;0;0;0;0;0;7;0;3340;0;0;0;0;8;0;3351;0;0;0;0;9;0;1763;0;0;0;0
07.01.18;20:35:00;1;233;7997;0;2;0;3096;0;0;0;0;3;0;1894;0;0;0;0;4;0;2630;0;0;0;0;5;0;6788;2;0;0;0;0;0;6;0;4952;2;0;0;0;0;0;7;0;3340;0;0;0;0;8;0;3351;0;0;0;0;9;0;1763;0;0;0;0
07.01.18;20:30:00;1;270;7977;0;2;0;3096;0;0;0;0;3;0;1894;0;0;0;0;4;0;2630;0;0;0;0;5;0;6788;2;0;0;0;0;0;6;0;4952;2;0;0;0;0;0;7;0;3340;0;0;0;0;8;0;3351;0;0;0;0;9;0;1763;0;0;0;0
07.01.18;20:25:00;1;325;7954;0;2;0;3096;0;0;0;0;3;0;1894;0;0;0;0;4;0;2630;0;0;0;0;5;0;6788;2;0;0;0;0;0;6;0;4952;2;0;0;0;0;0;7;0;3340;0;0;0;0;8;0;3351;0;0;0;0;9;0;1763;0;0;0;0
07.01.18;20:20:00;1;341;7926;0;2;0;3096;0;0;0;0;3;0;1894;0;0;0;0;4;0;2630;0;0;0;0;5;0;6788;2;0;0;0;0;0;6;0;4952;2;0;0;0;0;0;7;0;3340;0;0;0;0;8;0;3351;0;0;0;0;9;0;1763;0;0;0;0
07.01.18;20:15:00;1;343;7898;0;2;0;3096;0;0;0;0;3;0;1894;0;0;0;0;4;0;2630;0;0;0;0;5;0;6788;2;0;0;0;0;0;6;0;4952;2;0;0;0;0;0;7;0;3340;0;0;0;0;8;0;3351;0;0;0;0;9;0;1763;0;0;0;0
07.01.18;20:10:00;1;508;7869;0;2;0;3096;0;0;0;0;3;0;1894;0;0;0;0;4;0;2630;0;0;0;0;5;0;6788;2;0;0;0;0;0;6;0;4952;2;0;0;0;0;0;7;0;3340;0;0;0;0;8;0;3351;0;0;0;0;9;0;1763;0;0;0;0
07.01.18;20:05:00;1;300;7814;0;2;0;3096;0;0;0;0;3;0;1894;0;0;0;0;4;0;2630;0;0;0;0;5;0;6788;2;0;0;0;0;0;6;0;4952;2;0;0;0;0;0;7;0;3340;0;0;0;0;8;0;3351;0;0;0;0;9;0;1763;0;0;0;0
07.01.18;20:00:00;1;271;7789;0;2;0;3096;0;0;0;0;3;0;1894;0;0;0;0;4;0;2630;0;0;0;0;5;0;6788;2;0;0;0;0;0;6;0;4952;2;0;0;0;0;0;7;0;3340;0;0;0;0;8;0;3351;0;0;0;0;9;0;1763;0;0;0;0
07.01.18;19:55:00;1;233;7767;0;2;0;3096;0;0;0;0;3;0;1894;0;0;0;0;4;0;2630;0;0;0;0;5;0;6788;2;0;0;0;0;0;6;0;4952;2;0;0;0;0;0;7;0;3340;0;0;0;0;8;0;3351;0;0;0;0;9;0;1763;0;0;0;0
07.01.18;19:50:00;1;233;7747;0;2;0;3096;0;0;0;0;3;0;1894;0;0;0;0;4;0;2630;0;0;0;0;5;0;6788;2;0;0;0;0;0;6;0;4952;2;0;0;0;0;0;7;0;3340;0;0;0;0;8;0;3351;0;0;0;0;9;0;1763;0;0;0;0
07.01.18;19:45:00;1;233;7728;0;2;0;3096;0;0;0;0;3;0;1894;0;0;0;0;4;0;2630;0;0;0;0;5;0;6788;2;0;0;0;0;0;6;0;4952;2;0;0;0;0;0;7;0;3340;0;0;0;0;8;0;3351;0;0;0;0;9;0;1763;0;0;0;0
07.01.18;19:40:00;1;233;7708;0;2;0;3096;0;0;0;0;3;0;1894;0;0;0;0;4;0;2630;0;0;0;0;5;0;6788;2;0;0;0;0;0;6;0;4952;2;0;0;0;0;0;7;0;3340;0;0;0;0;8;0;3351;0;0;0;0;9;0;1763;0;0;0;0
07.01.18;19:35:00;1;587;7677;0;2;0;3096;0;0;0;0;3;0;1894;0;0;0;0;4;0;2630;0;0;0;0;5;0;6788;2;0;0;0;0;0;6;0;4952;2;0;0;0;0;0;7;0;3340;0;0;0;0;8;0;3351;0;0;0;0;9;0;1763;0;0;0;0
07.01.18;19:30:00;1;263;7640;0;2;0;3096;0;0;0;0;3;0;1894;0;0;0;0;4;0;2630;0;0;0;0;5;0;6788;2;0;0;0;0;0;6;0;4952;2;0;0;0;0;0;7;0;3340;0;0;0;0;8;0;3351;0;0;0;0;9;0;1763;0;0;0;0
07.01.18;19:25:00;1;313;7617;0;2;0;3096;0;0;0;0;3;0;1894;0;0;0;0;4;0;2630;0;0;0;0;5;0;6788;2;0;0;0;0;0;6;0;4952;2;0;0;0;0;0;7;0;3340;0;0;0;0;8;0;3351;0;0;0;0;9;0;1763;0;0;0;0
07.01.18;19:20:00;1;276;7591;0;2;0;3096;0;0;0;0;3;0;1894;0;0;0;0;4;0;2630;0;0;0;0;5;0;6788;2;0;0;0;0;0;6;0;4952;2;0;0;0;0;0;7;0;3340;0;0;0;0;8;0;3351;0;0;0;0;9;0;1763;0;0;0;0
07.01.18;19:15:00;1;244;7568;0;2;0;3096;0;0;0;0;3;0;1894;0;0;0;0;4;0;2630;0;0;0;0;5;0;6788;2;0;0;0;0;0;6;0;4952;2;0;0;0;0;0;7;0;3340;0;0;0;0;8;0;3351;0;0;0;0;9;0;1763;0;0;0;0
07.01.18;19:10:00;1;231;7548;0;2;0;3096;0;0;0;0;3;0;1894;0;0;0;0;4;0;2630;0;0;0;0;5;0;6788;2;0;0;0;0;0;6;0;4952;2;0;0;0;0;0;7;0;3340;0;0;0;0;8;0;3351;0;0;0;0;9;0;1763;0;0;0;0
07.01.18;19:05:00;1;643;7528;0;2;0;3096;0;0;0;0;3;0;1894;0;0;0;0;4;0;2630;0;0;0;0;5;0;6788;2;0;0;0;0;0;6;0;4952;2;0;0;0;0;0;7;0;3340;0;0;0;0;8;0;3351;0;0;0;0;9;0;1763;0;0;0;0
07.01.18;19:00:00;1;236;7480;0;2;0;3096;0;0;0;0;3;0;1894;0;0;0;0;4;0;2630;0;0;0;0;5;0;6788;2;0;0;0;0;0;6;0;4952;2;0;0;0;0;0;7;0;3340;0;0;0;0;8;0;3351;0;0;0;0;9;0;1763;0;0;0;0
07.01.18;18:55:00;1;235;7460;0;2;0;3096;0;0;0;0;3;0;1894;0;0;0;0;4;0;2630;0;0;0;0;5;0;6788;2;0;0;0;0;0;6;0;4952;2;0;0;0;0;0;7;0;3340;0;0;0;0;8;0;3351;0;0;0;0;9;0;1763;0;0;0;0
07.01.18;18:50:00;1;235;7440;0;2;0;3096;0;0;0;0;3;0;1894;0;0;0;0;4;0;2630;0;0;0;0;5;0;6788;2;0;0;0;0;0;6;0;4952;2;0;0;0;0;0;7;0;3340;0;0;0;0;8;0;3351;0;0;0;0;9;0;1763;0;0;0;0
07.01.18;18:45:00;1;234;7421;0;2;0;3096;0;0;0;0;3;0;1894;0;0;0;0;4;0;2630;0;0;0;0;5;0;6788;2;0;0;0;0;0;6;0;4952;2;0;0;0;0;0;7;0;3340;0;0;0;0;8;0;3351;0;0;0;0;9;0;1763;0;0;0;0
07.01.18;18:40:00;1;244;7401;0;2;0;3096;0;0;0;0;3;0;1894;0;0;0;0;4;0;2630;0;0;0;0;5;0;6788;2;0;0;0;0;0;6;0;4952;2;0;0;0;0;0;7;0;3340;0;0;0;0;8;0;3351;0;0;0;0;9;0;1763;0;0;0;0
07.01.18;18:35:00;1;333;7380;0;2;0;3096;0;0;0;0;3;0;1894;0;0;0;0;4;0;2630;0;0;0;0;5;0;6788;2;0;0;0;0;0;6;0;4952;2;0;0;0;0;0;7;0;3340;0;0;0;0;8;0;3351;0;0;0;0;9;0;1763;0;0;0;0
07.01.18;18:30:00;1;549;7352;0;2;0;3096;0;0;0;0;3;0;1894;0;0;0;0;4;0;2630;0;0;0;0;5;0;6788;2;0;0;0;0;0;6;0;4952;2;0;0;0;0;0;7;0;3340;0;0;0;0;8;0;3351;0;0;0;0;9;0;1763;0;0;0;0
07.01.18;18:25:00;1;348;7295;0;2;0;3096;0;0;0;0;3;0;1894;0;0;0;0;4;0;2630;0;0;0;0;5;0;6788;2;0;0;0;0;0;6;0;4952;2;0;0;0;0;0;7;0;3340;0;0;0;0;8;0;3351;0;0;0;0;9;0;1763;0;0;0;0
07.01.18;18:20:00;1;303;7265;0;2;0;3096;0;0;0;0;3;0;1894;0;0;0;0;4;0;2630;0;0;0;0;5;0;6788;2;0;0;0;0;0;6;0;4952;2;0;0;0;0;0;7;0;3340;0;0;0;0;8;0;3351;0;0;0;0;9;0;1763;0;0;0;0
07.01.18;18:15:00;1;301;7240;0;2;0;3096;0;0;0;0;3;0;1894;0;0;0;0;4;0;2630;0;0;0;0;5;0;6788;2;0;0;0;0;0;6;0;4952;2;0;0;0;0;0;7;0;3340;0;0;0;0;8;0;3351;0;0;0;0;9;0;1763;0;0;0;0
07.01.18;18:10:00;1;303;7215;0;2;0;3096;0;0;0;0;3;0;1894;0;0;0;0;4;0;2630;0;0;0;0;5;0;6788;2;0;0;0;0;0;6;0;4952;2;0;0;0;0;0;7;0;3340;0;0;0;0;8;0;3351;0;0;0;0;9;0;1763;0;0;0;0
07.01.18;18:05:00;1;230;7190;0;2;0;3096;0;0;0;0;3;0;1894;0;0;0;0;4;0;2630;0;0;0;0;5;0;6788;2;0;0;0;0;0;6;0;4952;2;0;0;0;0;0;7;0;3340;0;0;0;0;8;0;3351;0;0;0;0;9;0;1763;0;0;0;0
07.01.18;18:00:00;1;231;7171;0;2;0;3096;0;0;0;0;3;0;1894;0;0;0;0;4;0;2630;0;0;0;0;5;0;6788;2;0;0;0;0;0;6;0;4952;2;0;0;0;0;0;7;0;3340;0;0;0;0;8;0;3351;0;0;0;0;9;0;1763;0;0;0;0
07.01.18;17:55:00;1;626;7152;0;2;0;3096;0;0;0;0;3;0;1894;0;0;0;0;4;0;2630;0;0;0;0;5;0;6788;2;0;0;0;0;0;6;0;4952;2;0;0;0;0;0;7;0;3340;0;0;0;0;8;0;3351;0;0;0;0;9;0;1763;0;0;0;0
07.01.18;17:50:00;1;231;7103;0;2;0;3096;0;0;0;0;3;0;1894;0;0;0;0;4;0;2630;0;0;0;0;5;0;6788;2;0;0;0;0;0;6;0;4952;2;0;0;0;0;0;7;0;3340;0;0;0;0;8;0;3351;0;0;0;0;9;0;1763;0;0;0;0
07.01.18;17:45:00;1;237;7084;0;2;0;3096;0;0;0;0;3;0;1894;0;0;0;0;4;0;2630;0;0;0;0;5;0;6788;2;0;0;0;0;0;6;0;4952;2;0;0;0;0;0;7;0;3340;0;0;0;0;8;0;3351;0;0;0;0;9;0;1763;0;0;0;0
07.01.18;17:40:00;1;272;7063;0;2;0;3096;0;0;0;0;3;0;1894;0;0;0;0;4;0;2630;0;0;0;0;5;0;6788;2;0;0;0;0;0;6;0;4952;2;0;0;0;0;0;7;0;3340;0;0;0;0;8;0;3351;0;0;0;0;9;0;1763;0;0;0;0
07.01.18;17:35:00;1;275;7041;0;2;0;3096;0;0;0;0;3;0;1894;0;0;0;0;4;0;2630;0;0;0;0;5;0;6788;2;0;0;0;0;0;6;0;4952;2;0;0;0;0;0;7;0;3340;0;0;0;0;8;0;3351;0;0;0;0;9;0;1763;0;0;0;0
07.01.18;17:30:00;1;249;7018;0;2;0;3096;0;0;0;0;3;0;1894;0;0;0;0;4;0;2630;0;0;0;0;5;0;6788;2;0;0;0;0;0;6;0;4952;2;0;0;0;0;0;7;0;3340;0;0;0;0;8;0;3351;0;0;0;0;9;0;1763;0;0;0;0
07.01.18;17:25:00;1;231;6996;0;2;0;3096;0;0;0;0;3;0;1894;0;0;0;0;4;0;2630;0;0;0;0;5;0;6788;2;0;0;0;0;0;6;0;4952;2;0;0;0;0;0;7;0;3340;0;0;0;0;8;0;3351;0;0;0;0;9;0;1763;0;0;0;0
07.01.18;17:20:00;1;827;6976;0;2;0;3096;0;0;0;0;3;0;1894;0;0;0;0;4;0;2630;0;0;0;0;5;0;6788;2;0;0;0;0;0;6;0;4952;2;0;0;0;0;0;7;0;3340;0;0;0;0;8;0;3351;0;0;0;0;9;0;1763;0;0;0;0
07.01.18;17:15:00;1;231;6929;0;2;0;3096;0;0;0;0;3;0;1894;0;0;0;0;4;0;2630;0;0;0;0;5;0;6788;2;0;0;0;0;0;6;0;4952;2;0;0;0;0;0;7;0;3340;0;0;0;0;8;0;3351;0;0;0;0;9;0;1763;0;0;0;0
07.01.18;17:10:00;1;231;6909;0;2;0;3096;0;0;0;0;3;0;1894;0;0;0;0;4;0;2630;0;0;0;0;5;0;6788;2;0;0;0;0;0;6;0;4952;2;0;0;0;0;0;7;0;3340;0;0;0;0;8;0;3351;0;0;0;0;9;0;1763;0;0;0;0
07.01.18;17:05:00;1;231;6890;0;2;0;3096;0;0;0;0;3;0;1894;0;0;0;0;4;0;2630;0;0;0;0;5;0;6788;2;0;0;0;0;0;6;0;4952;2;0;0;0;0;0;7;0;3340;0;0;0;0;8;0;3351;0;0;0;0;9;0;1763;0;0;0;0
07.01.18;17:00:00;1;232;6871;0;2;0;3096;0;0;0;0;3;0;1894;0;0;0;0;4;0;2630;0;0;0;0;5;0;6788;2;0;0;0;0;0;6;0;4952;2;0;0;0;0;0;7;0;3340;0;0;0;0;8;0;3351;0;0;0;0;9;0;1763;0;0;0;0
07.01.18;16:55:00;1;237;6851;0;2;0;3096;0;0;0;0;3;0;1894;0;0;0;0;4;0;2630;0;0;0;0;5;0;6788;2;0;0;0;0;0;6;0;4952;2;0;0;0;0;0;7;0;3340;0;0;0;0;8;0;3351;0;0;0;0;9;0;1763;0;0;0;0
07.01.18;16:50:00;1;753;6831;0;2;0;3096;0;0;87;4;3;0;1894;0;0;184;10;4;0;2630;0;0;14;3;5;0;6788;2;0;0;0;0;0;6;0;4952;2;0;0;0;0;0;7;0;3340;0;0;0;0;8;0;3351;0;0;0;0;9;0;1763;0;0;0;0
07.01.18;16:45:00;1;311;6778;0;2;0;3096;6;0;336;13;3;0;1894;6;1;388;16;4;0;2630;2;0;111;11;5;0;6788;2;0;0;198;197;14;6;0;4952;1;6;2;133;229;17;7;0;3340;0;0;0;0;8;0;3351;0;0;0;0;9;0;1763;0;0;228;9
07.01.18;16:40:00;1;325;6752;0;2;0;3096;6;0;343;13;3;0;1894;6;0;408;16;4;0;2630;1;0;118;11;5;0;6788;26;0;0;367;373;22;6;0;4952;23;7;3;180;434;21;7;0;3340;0;0;153;9;8;0;3351;0;0;155;9;9;0;1763;6;0;274;11
07.01.18;16:35:00;1;260;6725;0;2;0;3096;6;0;362;13;3;0;1894;6;1;435;16;4;0;2630;1;0;142;12;5;0;6788;23;0;0;389;422;22;6;0;4952;23;8;3;181;508;21;7;0;3340;6;0;288;15;8;0;3351;6;0;293;15;9;0;1763;6;0;309;11
07.01.18;16:30:00;1;256;6703;0;2;0;3096;6;0;374;13;3;0;1894;6;2;438;16;4;0;2630;1;0;163;12;5;0;6788;26;0;0;407;482;23;6;0;4952;23;6;3;181;535;22;7;0;3340;6;0;325;15;8;0;3351;6;0;331;15;9;0;1763;6;0;347;11
07.01.18;16:25:00;1;254;6682;0;2;0;3096;6;0;391;13;3;2;1894;6;4;451;16;4;0;2630;1;0;196;12;5;6;6788;1;0;0;409;631;23;6;0;4952;23;6;3;216;562;22;7;0;3340;6;0;382;16;8;0;3351;6;0;387;15;9;0;1763;6;0;400;11
07.01.18;16:20:00;1;253;6661;0;2;0;3096;6;0;410;14;3;0;1894;6;0;522;16;4;0;2630;1;0;216;13;5;42;6788;1;7;9;396;628;23;6;0;4952;23;4;4;520;585;23;7;0;3340;6;1;432;16;8;0;3351;6;2;427;15;9;0;1763;6;2;468;11
07.01.18;16:15:00;1;496;6639;0;2;7;3096;6;17;402;14;3;4;1894;4;12;495;16;4;0;2630;3;0;206;13;5;96;6784;4;30;32;373;592;24;6;57;4951;4;27;26;445;378;24;7;0;3340;6;4;469;16;8;0;3351;6;4;470;16;9;2;1763;6;6;490;12
07.01.18;16:10:00;1;187;6591;0;2;38;3095;6;59;374;14;3;4;1893;6;10;526;16;4;10;2630;3;10;199;13;5;128;6776;4;50;46;373;592;24;6;77;4946;4;48;43;445;378;24;7;3;3340;4;8;478;16;8;0;3351;6;0;508;16;9;1;1762;6;6;531;12
07.01.18;16:05:00;1;188;6576;0;2;65;3092;4;94;359;15;3;12;1893;6;22;513;17;4;24;2630;3;25;198;13;5;167;6765;4;68;63;373;592;24;6;100;4939;4;55;51;445;377;24;7;46;3339;4;74;351;17;8;47;3351;4;77;391;16;9;3;1762;6;7;548;12
07.01.18;16:00:00;1;213;6560;0;2;78;3087;4;106;366;15;3;8;1892;6;14;539;17;4;21;2628;3;21;198;13;5;185;6751;4;82;71;373;592;24;6;109;4931;4;47;44;445;378;24;7;64;3336;4;90;390;17;8;68;3347;4;90;409;16;9;6;1762;4;10;549;12
07.01.18;15:55:00;1;230;6542;0;2;84;3081;4;110;366;15;3;13;1892;6;23;517;17;4;37;2626;3;38;198;13;5;199;6735;4;93;80;373;592;24;6;118;4922;4;53;49;445;378;24;7;68;3331;4;98;411;17;8;68;3341;4;98;395;16;9;5;1761;6;9;552;12
07.01.18;15:50:00;1;232;6523;0;2;91;3074;4;118;364;15;3;0;1891;6;0;571;17;4;48;2623;3;49;198;14;5;218;6718;4;104;92;373;592;24;6;133;4911;4;82;77;445;378;24;7;86;3325;4;108;391;17;8;77;3336;4;109;377;16;9;7;1761;6;13;553;12
07.01.18;15:45:00;1;442;6503;0;2;98;3066;4;124;359;15;3;18;1891;4;28;529;17;4;48;2619;3;50;198;14;5;231;6700;4;109;94;373;592;24;6;142;4900;4;52;47;445;378;24;7;81;3318;4;115;400;17;8;87;3329;4;118;404;16;9;7;1760;6;10;558;12
07.01.18;15:40:00;1;479;6460;0;2;114;3058;4;143;381;15;3;64;1889;4;97;448;18;4;63;2615;3;65;198;14;5;267;6681;4;124;113;373;592;24;6;162;4888;4;101;91;445;378;24;7;99;3311;4;129;391;17;8;101;3322;4;129;404;16;9;9;1760;6;14;558;12
07.01.18;15:35:00;1;189;6442;0;2;149;3048;4;179;379;15;3;83;1883;4;120;490;18;4;96;2610;3;100;211;14;5;322;6658;4;159;134;373;592;24;6;194;4875;4;97;86;445;377;24;7;141;3303;4;169;411;17;8;134;3314;4;165;391;16;9;62;1759;6;81;495;13
07.01.18;15:30:00;1;188;6426;0;2;175;3036;4;207;382;15;3;97;1877;4;137;507;18;4;123;2602;5;129;227;14;5;367;6631;4;185;158;379;592;24;6;225;4858;4;138;123;445;378;24;7;183;3291;4;206;463;17;8;169;3303;4;200;403;16;9;89;1754;4;113;479;13
07.01.18;15:25:00;1;188;6410;0;2;179;3021;4;212;386;15;3;99;1868;4;140;515;18;4;132;2591;5;137;226;14;5;390;6600;4;194;164;392;592;24;6;231;4840;4;120;104;445;378;24;7;181;3276;4;216;472;17;8;181;3289;4;217;428;16;9;94;1747;4;120;474;13
07.01.18;15:20:00;1;189;6394;0;2;179;3006;4;210;377;16;3;100;1860;4;139;515;18;4;127;2580;5;132;224;14;5;395;6568;4;196;169;401;592;24;6;234;4820;4;127;114;445;378;24;7;172;3261;4;212;461;17;8;182;3274;4;214;414;16;9;98;1739;4;122;475;13
07.01.18;15:15:00;1;189;6379;0;2;175;2992;4;208;381;16;3;105;1852;4;142;482;18;4;132;2570;5;137;226;14;5;397;6535;4;196;171;400;592;24;6;237;4800;4;135;123;445;378;24;7;172;3247;4;211;409;17;8;180;3258;4;212;410;16;9;93;1731;4;120;473;13
07.01.18;15:10:00;1;189;6363;0;2;176;2977;4;207;387;16;3;104;1843;4;139;484;18;4;124;2559;5;130;223;14;5;402;6501;4;200;171;401;592;24;6;244;4781;4;126;118;444;392;24;7;168;3232;4;207;408;17;8;176;3243;4;207;405;16;9;93;1723;4;119;486;13
07.01.18;15:05:00;1;705;6344;0;2;194;2962;4;227;380;16;3;112;1834;4;152;504;18;4;149;2548;5;155;228;14;5;440;6468;4;215;185;392;601;24;6;321;4760;4;147;165;500;550;24;7;199;3219;4;226;431;17;8;192;3229;4;225;438;17;9;102;1715;4;128;491;13
07.01.18;15:00:00;1;232;6299;0;2;233;2946;4;267;385;16;3;141;1825;4;178;508;18;4;183;2536;5;191;230;14;5;526;6431;4;273;223;406;618;24;6;401;4733;4;201;210;580;558;24;7;230;3202;4;262;445;17;8;231;3213;4;265;442;17;9;120;1707;4;150;506;14
07.01.18;14:55:00;1;268;6279;0;2;299;2927;4;335;392;16;3;179;1813;4;217;475;19;4;242;2520;5;252;231;14;5;650;6385;4;319;273;411;650;24;6;490;4699;4;255;264;591;569;24;7;286;3183;4;330;478;17;8;304;3193;4;331;449;17;9;159;1697;4;190;514;14
07.01.18;14:50:00;1;256;6259;0;2;339;2902;4;378;397;16;3;206;1798;4;249;496;19;4;280;2500;5;292;234;15;5;718;6331;4;367;306;417;633;24;6;543;4658;4;273;278;582;564;24;7;345;3159;4;380;466;17;8;351;3168;4;386;453;17;9;188;1684;4;218;519;14
07.01.18;14:45:00;1;256;6238;0;2;372;2874;4;411;399;16;3;229;1781;4;271;505;19;4;312;2477;5;325;235;15;5;783;6271;4;394;331;412;653;24;6;593;4612;4;316;316;583;565;24;7;384;3131;4;422;443;17;8;388;3139;4;430;454;17;9;209;1668;4;240;506;14
07.01.18;14:40:00;1;257;6216;0;2;393;2843;4;430;401;17;3;245;1762;4;287;515;19;4;327;2451;5;341;238;15;5;824;6205;4;407;355;416;674;24;6;620;4563;4;326;326;572;568;24;7;432;3099;4;459;475;17;8;422;3107;4;464;474;17;9;227;1651;4;259;513;14
07.01.18;14:35:00;1;257;6195;0;2;384;2810;4;424;396;17;3;239;1742;4;282;504;19;4;324;2424;5;337;235;15;5;820;6136;4;419;350;422;652;24;6;612;4511;4;304;309;577;575;24;7;423;3063;4;462;467;17;8;423;3072;4;467;466;17;9;227;1632;4;260;509;14
07.01.18;14:30:00;1;600;6173;0;2;394;2778;4;434;401;17;3;242;1722;4;286;522;19;4;331;2397;5;345;233;15;5;844;6068;4;422;360;414;670;24;6;634;4460;4;289;296;590;567;24;7;431;3028;4;470;467;17;8;418;3037;4;460;441;17;9;230;1613;4;263;509;14
07.01.18;14:25:00;1;272;6123;0;2;410;2745;4;450;397;17;3;255;1702;4;297;518;19;4;349;2369;5;364;233;15;5;880;5997;4;445;381;415;681;24;6;664;4406;4;324;327;588;567;24;7;457;2992;4;500;475;17;8;461;3002;4;499;461;17;9;245;1594;4;281;523;14
07.01.18;14:20:00;1;188;6101;0;2;402;2711;4;442;405;17;3;253;1680;4;296;515;19;4;348;2340;5;363;238;15;5;882;5923;4;442;380;423;649;24;6;668;4351;4;337;339;596;569;24;7;461;2954;4;499;485;17;8;466;2964;4;504;476;17;9;248;1573;4;281;514;14
07.01.18;14:15:00;1;205;6086;0;2;407;2678;4;450;405;17;3;254;1659;4;299;519;19;4;355;2311;5;370;237;15;5;899;5849;4;455;390;421;678;24;6;682;4295;4;356;354;586;576;24;7;467;2915;4;502;462;17;8;462;2924;4;504;464;17;9;247;1553;4;281;525;14
07.01.18;14:10:00;1;247;6068;0;2;426;2644;4;467;403;17;3;265;1638;4;306;512;19;4;363;2281;5;377;236;15;5;927;5773;4;478;395;421;677;24;6;706;4238;4;367;365;588;575;24;7;477;2876;4;508;452;17;8;478;2886;4;523;471;17;9;256;1532;4;293;522;14
07.01.18;14:05:00;1;469;6047;0;2;437;2608;4;478;404;17;3;270;1616;4;316;517;19;4;373;2251;5;389;240;15;5;945;5695;4;482;407;419;660;24;6;718;4179;4;365;367;594;573;24;7;488;2837;4;525;445;17;8;486;2846;4;531;453;17;9;263;1511;4;297;513;14
07.01.18;14:00:00;1;907;5994;0;2;451;2572;4;493;395;17;3;279;1593;4;325;519;19;4;386;2220;5;402;233;15;5;971;5616;4;491;404;421;650;24;6;736;4119;4;374;374;595;576;24;7;506;2796;4;547;466;17;8;504;2805;4;544;450;17;9;270;1489;4;306;521;14
07.01.18;13:55:00;1;235;5934;0;2;471;2534;4;512;398;17;3;294;1570;4;339;502;19;4;404;2188;5;420;237;15;5;1009;5535;4;514;434;424;677;24;6;766;4057;4;404;399;593;565;24;7;532;2754;4;564;474;17;8;528;2763;4;572;470;17;9;281;1466;4;319;527;14
07.01.18;13:50:00;1;581;5914;0;2;469;2495;4;511;405;17;3;291;1546;4;337;509;19;4;399;2154;5;416;238;15;5;999;5451;4;510;428;426;667;24;6;759;3993;4;387;392;595;570;24;7;529;2709;4;565;479;17;8;523;2719;4;570;482;17;9;280;1443;4;317;522;14
07.01.18;13:45:00;1;337;5861;0;2;462;2456;4;503;400;17;3;286;1521;4;333;513;19;4;387;2121;5;403;237;15;5;968;5368;4;501;419;418;662;24;6;739;3930;4;372;376;583;572;24;7;512;2665;4;545;470;17;8;509;2676;4;548;465;17;9;272;1419;4;307;520;14